Probability
0 0 0 0 0 0 0 0 1 1 0 0 0 0 0 0 0 0 0 0 0 0 0 0 0 0 0 0 0 0 0 0 0 0 0 0 0 0 0 0 0 0 0
0 0 0 0 0 0 0 0 1 1 1 1 0 0 0 0 0 0 0 0 0 0 0 0 0 0 0 0 0 0 0 0 0 0 0 0 0 0 0 0 0 0 0
0 0 0 0 0 0 0 0 1 1 2 2 1 0 0 0 0 0 0 0 0 0 0 0 0 0 0 0 0 0 0 0 0 0 0 0 0 0 0 0 0 0 0
0 0 0 0 0 0 0 0 0 0 1 2 2 1 0 0 0 0 0 0 0 0 0 0 0 0 0 0 0 0 0 0 0 0 0 0 0 0 0 0 0 0 0
0 0 0 0 0 0 0 0 0 0 0 1 1 1 0 0 0 0 0 0 0 0 0 0 0 0 0 0 0 0 0 0 0 0 0 0 0 0 0 0 0 0 0
0 0 0 0 0 0 0 0 0 0 0 0 0 0 0 0 0 0 0 0 0 0 0 0 0 0 0 0 0 0 0 0 0 0 0 0 0 0 0 0 0 0 0
0 0 0 0 0 0 0 0 0 0 0 0 0 0 0 0 0 0 0 0 0 0 0 0 0 0 0 0 0 0 0 0 0 0 0 0 0 0 0 0 0 0 0
0 0 0 0 0 0 0 0 0 0 0 0 0 0 0 0 0 0 0 0 0 0 0 0 0 0 0 0 0 0 0 0 0 0 0 0 0 0 0 0 0 0 0
0 0 0 0 0 0 0 0 0 0 0 0 0 0 0 0 0 0 0 0 0 0 0 0 0 0 0 0 0 0 0 0 0 0 0 0 0 0 0 0 0 0 0
0 0 0 0 0 0 0 0 0 0 0 0 0 0 0 0 0 0 0 0 0 0 0 0 0 0 0 0 0 0 0 0 0 0 0 0 0 0 0 0 0 0 0
0 0 0 0 0 0 0 0 0 0 0 0 0 0 0 0 0 0 0 0 0 0 0 0 0 0 0 0 0 0 0 0 0 0 0 0 0 0 0 0 0 0 0
0 0 0 0 0 0 0 0 0 0 0 0 0 0 0 0 0 0 0 0 0 0 0 0 0 0 0 0 0 0 0 0 0 0 0 0 1 1 1 1 0 0 0
0 0 0 0 0 0 0 0 0 0 0 0 0 0 0 0 0 0 0 0 0 0 0 0 0 0 0 0 0 0 0 0 0 0 0 1 2 2 2 2 2 1 1
0 0 0 0 0 0 0 0 0 0 0 0 0 0 0 0 0 0 0 0 0 0 0 0 0 0 0 0 0 0 0 0 0 0 0 1 2 2 3 3 3 2 2
0 0 0 0 0 0 0 0 0 0 0 0 0 0 0 0 0 0 0 0 0 0 0 0 0 0 0 0 0 0 0 0 0 0 0 0 1 1 1 2 2 2 2
0 0 0 0 0 0 0 0 0 0 0 0 0 0 0 0 0 0 0 0 0 0 0 0 0 0 0 0 0 0 0 0 0 0 0 0 0 0 0 1 1 1 2
0 0 0 0 0 0 0 0 0 0 0 0 0 0 0 0 0 0 0 0 0 0 0 0 0 0 0 0 0 0 0 0 0 0 0 0 0 0 0 0 0 0 1
0 0 0 0 0 0 0 0 0 0 0 0 0 0 0 0 0 0 0 0 0 0 0 0 0 0 0 0 0 0 0 0 0 0 0 0 0 0 0 0 0 0 0
0 0 0 0 0 0 0 0 0 0 0 0 0 0 0 0 0 0 0 0 0 0 0 0 0 0 0 0 0 0 0 0 0 0 0 0 0 0 0 0 0 0 0
0 0 0 0 0 0 0 0 0 0 0 0 0 0 0 0 0 0 0 0 0 0 0 0 0 0 0 0 0 0 0 0 0 0 0 0 0 0 0 0 0 0 0
0 0 0 0 0 0 0 0 0 0 0 0 0 0 0 0 0 0 0 0 0 0 0 0 0 0 0 0 0 0 0 0 0 0 0 0 0 0 0 0 0 0 0
0 0 0 0 0 0 0 0 0 0 0 0 0 0 0 0 0 0 0 0 0 0 0 0 0 0 0 0 0 0 0 0 0 0 0 0 0 0 0 0 0 0 0
0 0 0 0 0 0 0 0 0 0 0 0 0 0 0 0 0 0 0 0 0 0 0 0 0 0 0 0 0 0 0 0 0 0 0 0 0 0 0 0 0 0 0
0 0 0 0 0 0 0 0 0 0 0 0 0 0 0 0 0 0 0 0 0 0 0 0 0 0 0 0 0 0 0 0 0 0 0 0 0 0 0 0 0 0 0
0 0 0 0 0 0 0 0 0 0 0 0 0 0 0 0 0 0 0 0 0 0 0 0 0 0 0 0 0 0 0 0 0 0 0 0 0 0 0 0 0 0 0
0 0 0 0 0 0 0 0 0 0 0 0 0 0 0 0 0 0 0 0 0 0 0 0 0 0 0 0 0 0 0 0 0 0 0 0 0 0 0 0 0 0 0
Wind_Speed
7 7 7 7 7 7 7 7 7 8 7 6 6 6 7 6 5 5 6 7 7 7 7 5 5 5 4 5 5 5 5 4 3 3 4 6 8 9 8 7 6 7 7
6 6 7 7 7 8 7 7 7 7 7 7 6 5 5 5 6 5 6 8 8 8 7 7 6 6 5 6 6 5 4 4 3 3 2 4 4 5 6 5 5 6 5
8 7 6 6 6 6 7 6 6 6 7 7 5 4 4 3 4 5 6 7 8 8 8 8 7 6 6 6 7 6 7 5 4 5 4 3 4 4 3 4 5 5 4
8 6 5 4 4 4 3 4 4 4 5 5 6 7 7 7 7 5 5 6 8 8 8 8 8 7 6 7 6 7 6 6 5 4 6 6 3 3 4 3 3 4 5
7 6 4 4 3 3 3 3 3 3 4 5 6 7 7 6 4 4 5 5 6 7 7 7 7 7 6 7 6 6 7 6 6 5 3 6 6 6 6 7 4 4 4
6 5 3 3 2 2 2 2 3 3 3 4 5 6 6 6 5 5 5 4 4 4 6 6 6 7 6 6 7 7 7 7 7 6 5 4 4 5 6 8 7 6 5
6 5 4 3 3 2 2 2 3 3 3 3 4 5 6 6 6 5 4 4 3 3 4 5 6 5 6 6 6 6 6 7 7 7 6 6 6 5 5 7 8 7 6
5 5 5 4 4 3 3 2 2 2 1 2 3 3 4 3 3 4 3 3 3 3 3 4 5 5 5 5 5 5 6 5 7 7 7 6 6 5 6 6 7 9 7
5 5 4 4 3 3 2 2 2 2 1 0 0 0 1 1 2 1 2 1 1 2 3 3 4 5 5 5 5 5 5 5 6 6 7 7 6 5 5 6 6 7 10
5 4 4 4 3 3 2 2 2 2 1 1 1 0 0 1 1 1 1 1 1 1 1 2 3 3 3 4 5 4 5 5 5 5 6 6 5 5 5 5 5 6 8
5 4 4 4 3 3 2 2 2 2 1 1 1 1 0 0 0 0 0 0 0 1 1 1 1 2 2 2 3 4 4 5 4 4 5 6 5 5 4 4 5 5 6
4 4 4 4 3 3 3 2 2 2 1 1 1 1 1 1 0 0 1 0 0 0 1 1 1 1 1 1 2 3 3 3 4 4 4 5 4 5 4 4 5 5 5
3 3 3 4 4 3 3 3 3 2 2 2 1 1 1 1 0 0 1 1 1 1 0 0 0 0 1 1 2 2 2 3 3 3 4 5 4 5 4 4 5 5 5
3 3 3 4 4 3 3 3 2 2 2 2 2 1 1 1 0 0 1 1 1 1 1 1 0 0 1 1 1 2 2 3 3 3 3 4 3 4 5 4 5 5 5
5 5 5 5 4 4 3 3 2 2 2 2 2 1 1 1 1 1 1 1 1 1 1 1 1 1 1 1 2 2 2 3 3 3 3 3 3 3 4 4 4 5 5
6 5 5 5 5 5 4 3 3 3 3 2 2 1 1 1 1 1 1 1 1 1 2 1 1 2 2 3 4 3 3 3 3 3 3 3 3 3 5 6 6 6 6
6 6 5 5 5 4 4 4 3 2 3 2 1 1 1 1 0 1 1 1 1 2 1 1 2 2 3 5 5 5 3 3 2 3 3 4 4 4 4 6 6 6 6
5 5 4 3 2 2 2 3 3 3 2 2 1 1 1 0 0 1 0 1 1 1 1 2 2 2 3 6 6 6 3 2 3 3 4 4 4 5 5 6 6 6 5
3 3 2 2 2 2 3 4 4 3 2 2 1 1 1 1 1 0 1 1 1 1 1 2 2 2 3 5 6 6 3 3 4 4 4 4 4 6 8 6 6 7 6
1 0 0 1 2 2 3 4 4 4 3 2 2 1 1 1 1 1 1 1 1 1 1 2 2 2 2 5 6 6 2 3 3 3 3 4 6 8 9 6 6 8 8
1 1 1 1 1 2 3 3 3 3 2 2 1 1 1 1 1 1 1 1 1 2 2 2 2 2 3 4 6 6 3 2 3 3 3 3 7 9 10 9 6 8 9
1 1 1 1 1 2 3 3 2 1 1 2 2 2 1 1 1 1 1 1 2 2 1 1 2 2 3 4 5 7 6 5 3 3 3 4 9 10 11 8 8 10 8
2 2 2 2 2 2 2 2 1 1 2 2 2 1 1 1 1 2 1 1 1 1 0 0 1 2 2 3 6 6 7 7 4 4 6 8 9 9 7 7 9 7 4
2 2 2 2 2 2 3 2 2 2 2 2 2 2 2 2 1 1 1 1 1 0 0 0 1 2 2 2 3 3 4 5 5 4 4 7 8 7 7 6 5 3 3
1 1 1 0 1 2 2 2 2 1 1 2 2 1 1 2 1 1 0 1 0 1 1 1 1 1 2 3 5 4 3 3 3 4 3 3 3 3 3 4 4 4 3
1 1 1 0 1 1 1 2 1 1 1 1 1 1 1 1 1 1 1 2 1 1 1 2 2 2 3 5 6 6 6 6 6 3 2 3 3 4 4 4 5 4 4
Wind_Direction
219 210 198 186 180 187 194 197 196 194 187 187 191 199 208 209 211 211 208 211 212 211 210 212 214 214 216 215 212 216 224 231 230 260 276 264 250 247 246 240 242 249 249
230 221 203 188 187 191 195 199 200 197 192 192 192 193 192 201 208 208 210 212 214 214 213 214 214 213 219 222 218 215 221 225 198 206 260 289 289 258 242 234 234 243 250
231 231 215 197 192 195 193 193 197 199 198 191 181 181 192 205 207 211 213 214 215 216 214 215 215 216 216 223 222 217 217 227 218 204 211 244 264 303 279 241 235 240 246
232 231 224 209 193 189 180 186 196 200 200 189 187 189 197 208 212 208 209 207 210 216 216 216 216 218 219 222 222 220 220 221 230 221 221 230 241 271 295 285 258 251 253
218 225 215 198 180 162 161 180 194 205 204 195 195 199 209 214 212 204 209 209 208 210 214 215 217 220 223 225 222 221 221 221 227 227 224 236 244 241 259 279 278 270 255
203 203 195 165 154 146 155 176 187 205 206 200 199 201 209 210 208 210 211 211 208 206 209 213 216 220 224 226 227 225 225 225 228 232 227 221 228 235 244 262 272 272 264
195 194 188 177 169 166 174 176 178 200 209 205 204 206 211 212 214 214 212 209 209 209 212 212 219 222 226 227 227 228 231 229 230 233 236 235 239 241 245 258 271 275 272
191 185 178 174 172 173 175 175 175 184 189 208 214 211 211 214 218 215 210 212 214 213 213 213 218 222 225 229 229 231 233 234 235 240 240 244 245 242 244 253 268 280 277
186 177 173 169 164 168 178 177 169 164 158 168 176 200 216 209 209 212 210 218 229 224 219 218 219 223 223 225 228 232 234 235 236 241 242 246 249 247 248 249 250 266 282
182 172 173 164 162 166 165 154 151 159 154 122 126 140 198 226 214 174 201 226 258 264 231 223 225 228 227 229 230 237 236 236 240 241 245 249 252 251 249 249 251 250 265
179 177 176 168 165 165 164 160 156 146 136 134 132 119 103 63 93 132 198 239 265 292 282 258 238 235 235 234 234 241 245 243 248 249 250 255 258 261 263 261 260 261 262
172 172 175 172 175 177 172 169 159 152 162 161 154 149 132 125 140 219 302 313 291 300 296 301 272 262 267 256 246 256 259 255 260 264 263 267 269 265 267 267 267 267 265
177 177 187 189 190 184 180 176 170 167 167 160 161 159 157 150 157 270 333 345 337 325 350 10 293 290 279 273 259 255 261 262 265 270 271 277 279 277 280 279 277 276 279
215 205 210 211 201 194 188 179 177 170 167 159 162 167 173 152 137 57 25 1 351 344 340 320 294 312 324 319 315 303 291 280 276 272 272 275 274 278 285 285 286 290 289
235 222 218 214 203 200 203 194 189 178 164 166 175 180 127 76 62 46 28 17 10 8 357 355 2 6 358 358 345 321 299 291 290 291 290 293 297 302 299 296 298 300 292
245 240 230 216 210 208 201 196 196 182 163 170 176 134 97 78 65 30 16 32 26 24 26 20 22 17 9 8 1 337 313 306 298 299 304 305 295 307 308 301 295 291 290
238 237 236 225 217 210 194 189 184 149 146 153 144 119 113 114 68 46 39 39 25 31 37 31 39 33 16 15 7 357 335 320 309 310 316 322 332 331 325 318 311 302 292
240 237 237 231 216 189 171 159 140 141 148 142 129 110 117 133 72 72 57 30 31 30 25 27 32 36 21 19 10 356 354 342 340 336 327 324 327 339 340 329 320 310 306
239 223 216 210 186 170 159 150 146 147 150 158 152 143 147 156 125 95 18 14 22 27 28 30 31 29 18 18 12 4 353 356 351 347 346 338 328 334 338 328 314 308 305
342 310 131 108 124 139 131 144 157 158 173 182 176 154 150 164 165 153 51 29 37 36 36 27 28 27 12 15 14 6 3 357 345 342 342 339 335 333 334 325 312 304 307
314 350 85 118 127 113 123 142 153 178 177 146 135 118 114 129 124 88 73 73 66 58 45 30 19 26 14 10 12 7 4 348 326 320 323 326 332 328 327 325 311 306 312
8 30 48 53 61 98 130 145 163 135 91 114 117 108 99 102 101 95 70 70 83 81 53 32 13 20 15 9 4 2 359 349 324 312 315 318 323 322 321 324 324 324 322
4 31 66 57 37 60 115 147 118 85 103 114 126 130 117 99 101 114 106 82 85 104 79 27 342 348 7 0 2 358 354 348 336 316 315 320 322 323 323 324 327 327 319
359 31 62 69 27 29 61 74 63 71 119 143 148 141 138 112 91 96 114 131 135 117 29 333 318 329 344 345 348 346 344 344 339 328 320 321 322 323 323 324 329 326 317
360 41 76 127 11 29 41 43 58 91 135 155 147 146 140 128 128 107 121 160 187 188 199 234 258 288 299 316 330 334 328 327 319 326 326 326 329 330 329 327 323 322 321
77 71 64 77 40 43 26 12 31 118 154 156 142 142 132 124 128 123 45 27 23 26 9 349 333 319 321 324 325 328 333 337 338 346 329 321 319 319 323 324 322 324 327